Location: Unspecified
(54.1780°N, 0.0000°E)
Time: 15:52:19
(UTC+00:00)

Explorer 7 - Pass Details

Date: 23 June 2019
Orbit: 485 x 680 km, 50.3° (Epoch: 22 July)

Event Time Altitude Azimuth Distance (km) Brightness Sun altitude
Rises 08:45:29 0° 218° (SW) 2,761 10.3 42.3°
Reaches altitude 10° 08:47:57 10° 205° (SSW) 1,903 9.6 42.7°
Maximum altitude 08:51:33 26° 150° (SSE) 1,217 9.6 43.2°
Drops below altitude 10° 08:55:22 10° 94° (E) 2,012 10.7 43.7°
Sets 08:58:03 0° 82° (E) 2,955 11.1 44.0°
